Flag for Taiwan Weather past 2 weeks in Taipei, Taiwan

Now
88 °F

Passing clouds.


Feels Like: 91 °F
Forecast: 73 / 87 °F
Wind: 5 mph from North

Location: Sungshan / Taipei

Current Time: Oct 20, 2014 at 4:44:16 PM

Latest Report: Oct 20, 2014 at 4:00 PM


Visibility: N/A

Pressure: 29.89 "Hg

Humidity: 52%

Dew point: 68 °F

Location of TaipeiLocation

Historic Weather in Taipei — Graph

°F

Taipei temperature yesterday

Maximum temperature yesterday: 84 °F (at 11:30 AM)
Minimum temperature yesterday: 72 °F (at 4:00 AM)
Average temperature yesterday: 78 °F

Past Weeks' High & Low Weather Summary

 TemperatureHumidityPressure
High90 °F (Oct 20, 11:00 AM)94% (Oct 9, 6:51 AM)30.15 "Hg (Oct 9, 6:51 AM)
Low63 °F (Oct 15, 3:00 AM)39% (Oct 16, 12:30 PM)29.74 "Hg (Oct 10, 2:30 PM)
Average75 °F65%29.98 "Hg
* Reported Oct 5 3:00 PM — Oct 20 3:30 PM, Taipei, Weather by CustomWeather, © 2014

Note: Actual official high and low records may vary slightly from our data, if they occured in-between our weather recording intervals... More about our weather records

Advertising

Taipei weather history for previous 24 hours

 ConditionsComfort  
Time TempWeatherWind HumidityBarometerVisibility
3:30 PM
Oct 20
88 °FPassing clouds.7 mph52%29.89 "HgN/A
3:00 PM88 °FPassing clouds.9 mph52%29.89 "HgN/A
2:30 PM90 °FPassing clouds.6 mph49%29.89 "HgN/A
2:00 PM88 °FPassing clouds.7 mph52%29.89 "HgN/A
1:30 PM88 °FPassing clouds.8 mph52%29.89 "HgN/A
1:00 PM90 °FPassing clouds.9 mph52%29.89 "HgN/A
11:00 AM90 °FPassing clouds.13 mph41%29.95 "HgN/A
10:30 AM88 °FPassing clouds.7 mph49%29.98 "HgN/A
10:00 AM86 °FPassing clouds.6 mph49%29.98 "HgN/A
9:30 AM84 °FPassing clouds.6 mph58%29.98 "HgN/A
9:00 AM82 °FSunny.1 mph58%30.01 "Hg10 mi
8:30 AM82 °FSunny.No wind58%30.01 "Hg10 mi
8:00 AM79 °FSunny.2 mph65%30.01 "Hg10 mi
7:30 AM77 °FSunny.No wind74%30.01 "Hg10 mi
7:00 AM75 °FPassing clouds.No wind78%29.98 "HgN/A
6:30 AM72 °FPassing clouds.No wind83%29.98 "HgN/A
6:00 AM72 °FPassing clouds.No wind83%29.98 "HgN/A
5:00 AM73 °FPassing clouds.No wind78%29.95 "HgN/A
4:00 AM73 °FPassing clouds.No wind78%29.95 "HgN/A
3:00 AM73 °FPassing clouds.5 mph78%29.98 "HgN/A
2:00 AM73 °FPassing clouds.6 mph78%29.98 "HgN/A
1:00 AM73 °FPassing clouds.8 mph78%29.98 "HgN/A
12:00 AM75 °FPassing clouds.9 mph74%30.01 "HgN/A
11:30 PM
Oct 19
75 °FPassing clouds.9 mph74%30.01 "HgN/A
11:00 PM75 °FPassing clouds.10 mph74%30.01 "HgN/A
10:30 PM77 °FPassing clouds.9 mph69%30.01 "HgN/A
10:00 PM77 °FPassing clouds.10 mph69%30.01 "HgN/A
9:30 PM77 °FPassing clouds.10 mph69%30.01 "HgN/A
9:00 PM77 °FPassing clouds.12 mph69%30.01 "HgN/A
8:30 PM77 °FPassing clouds.12 mph69%30.01 "HgN/A
8:00 PM77 °FPassing clouds.12 mph69%30.01 "HgN/A
7:30 PM77 °FPassing clouds.13 mph69%30.01 "HgN/A
7:00 PM77 °FPassing clouds.13 mph69%30.01 "HgN/A
6:30 PM77 °FPassing clouds.13 mph69%29.98 "HgN/A
6:00 PM77 °FPassing clouds.12 mph74%29.98 "HgN/A
5:30 PM77 °FPassing clouds.14 mph74%29.98 "HgN/A
5:00 PM79 °FPassing clouds.15 mph70%29.98 "HgN/A
4:30 PM81 °FPassing clouds.15 mph66%29.98 "HgN/A
4:00 PM81 °FPassing clouds.16 mph66%29.95 "HgN/A
Weather by CustomWeather, © 2014

See weather overviewHow to use our weather pages